RH
87 82 81 86 75 84 84 84 87 87 86 69 64 65 70 44 12 34 45 45 44 40 17 12 9 16 17 29 29 58 82 84 61 34 31 21 21 17 17 17 17 15 18 16 17
85 84 78 87 75 77 79 78 67 71 83 70 53 40 38 53 12 18 40 40 42 38 15 20 26 21 27 29 31 67 79 40 26 27 27 24 24 22 20 19 16 19 16 17 19
84 84 79 80 89 80 78 74 75 56 64 50 43 17 15 48 17 18 34 35 39 22 15 16 19 23 26 30 31 25 38 25 24 24 29 28 27 22 23 20 17 15 20 19 22
83 80 80 79 78 86 84 71 64 66 32 20 26 30 9 32 17 18 32 32 30 18 16 18 25 24 29 27 30 25 23 28 28 32 36 30 25 23 22 20 17 22 21 22 25
81 78 67 75 79 60 56 47 41 31 34 18 9 23 10 25 22 20 25 18 19 19 21 24 26 25 27 26 25 23 24 32 33 36 35 29 30 26 25 21 21 22 23 25 27
83 67 59 61 72 62 42 31 25 26 26 23 14 8 13 29 20 22 23 17 20 23 22 21 23 23 26 27 26 29 32 35 29 25 27 33 33 30 28 24 21 23 24 26 28
78 58 44 36 39 35 28 18 20 21 22 19 20 11 21 23 21 22 23 21 22 24 26 24 21 26 24 29 28 28 26 32 26 29 32 33 38 39 27 27 26 27 28 28 38
55 42 26 16 17 24 17 16 18 14 14 12 10 11 24 19 19 20 22 16 22 26 25 23 21 30 33 33 34 36 37 46 29 33 32 31 50 31 28 33 35 34 34 39 37
31 41 20 13 14 20 14 16 14 10 11 10 10 11 16 17 20 24 28 27 22 22 23 19 22 37 40 46 50 52 67 52 42 32 34 38 48 33 32 42 47 46 42 39 38
23 22 26 13 14 19 15 13 13 13 12 12 13 12 20 25 22 26 27 22 26 30 30 37 42 44 51 49 74 63 74 62 53 38 40 49 51 38 48 47 52 47 42 40 37
18 19 21 17 18 18 12 15 14 25 19 23 21 19 23 24 23 28 29 25 27 36 48 41 47 60 58 55 51 62 80 76 52 39 47 49 55 45 48 49 50 47 44 42 38
17 15 19 14 19 21 17 49 57 24 27 21 20 22 22 29 34 30 30 37 38 46 49 43 62 49 48 46 47 51 68 73 55 43 50 56 56 46 51 52 50 50 45 43 38
16 14 20 18 18 21 38 58 45 31 28 23 25 31 32 28 35 36 38 43 50 54 60 60 50 39 42 46 47 53 71 70 70 56 52 66 50 54 50 50 48 50 44 40 37
17 16 19 20 21 24 41 52 49 44 31 26 28 29 32 32 29 27 38 44 52 66 52 40 40 42 49 40 43 76 46 58 70 79 84 65 74 55 55 55 53 52 44 41 36
17 20 19 21 26 32 32 43 40 41 42 28 30 28 34 36 37 30 35 44 56 54 48 41 53 55 51 40 42 67 57 65 60 84 82 60 79 55 51 42 60 51 43 39 38
18 18 21 22 29 39 38 38 37 61 40 21 37 44 41 42 43 45 46 42 43 47 47 57 46 53 53 42 45 55 62 48 55 67 73 67 62 61 42 57 66 49 43 39 41
18 19 21 29 34 42 41 42 58 50 18 27 42 47 46 53 46 51 56 79 72 66 77 60 52 50 47 68 57 76 79 83 80 83 69 60 67 67 51 68 53 50 44 41 44
19 18 19 34 36 43 50 37 39 17 23 43 47 41 48 57 54 57 60 79 70 74 81 87 51 59 45 72 86 90 76 86 95 78 65 51 85 57 49 53 44 45 43 43 50
22 18 19 27 35 46 39 49 19 34 47 52 40 32 32 50 57 60 70 85 86 80 73 87 67 46 50 64 70 74 87 70 97 89 94 61 60 54 60 50 58 54 46 51 58
22 16 21 24 24 31 56 35 38 45 46 43 55 54 65 63 61 80 74 67 77 72 81 75 98 51 50 62 66 73 77 83 90 99 92 61 72 54 58 78 69 60 58 66 70
23 23 19 20 19 40 61 57 53 46 44 44 49 71 81 80 74 85 81 61 83 64 75 90 93 68 57 70 81 88 91 89 94 95 94 93 63 72 73 82 68 64 69 85 86
22 32 18 19 34 54 63 46 40 47 43 51 58 72 78 73 85 76 75 64 68 74 71 85 95 100 72 73 81 89 87 92 93 91 84 91 75 62 87 59 64 70 84 87 88
48 33 18 18 46 58 45 43 41 42 44 46 50 56 66 69 70 69 56 44 51 53 74 92 94 96 64 74 79 100 98 94 94 94 95 94 70 46 52 60 65 83 88 86 83
70 62 43 55 59 66 67 41 47 45 51 47 47 49 54 62 62 75 58 48 50 50 51 66 96 77 84 57 78 86 84 91 95 98 93 82 67 58 62 71 81 86 85 82 81
78 61 54 57 42 50 56 71 40 46 51 50 50 52 70 80 70 75 63 59 50 57 63 79 98 91 80 76 80 88 91 98 96 88 98 64 79 70 69 80 90 90 86 86 90
76 78 88 84 59 49 58 68 40 51 55 50 49 48 66 78 57 60 52 64 69 64 74 82 96 97 98 73 90 94 95 96 91 83 87 82 88 67 68 76 86 87 85 91 88
54 48 82 76 69 68 49 59 54 56 48 42 48 71 73 65 61 56 53 56 60 72 84 96 99 98 96 70 84 93 97 95 83 89 88 99 79 72 81 87 86 89 92 91 90
Wind_Speed
15 14 16 15 15 14 14 14 11 7 3 3 3 6 5 6 21 45 33 25 23 24 24 26 20 15 9 4 6 2 0 2 1 4 4 6 7 3 4 5 5 4 1 10 25
14 14 14 14 15 14 15 14 13 10 7 6 3 6 7 4 8 37 28 27 23 22 21 20 8 11 4 5 5 4 1 3 3 1 3 6 4 6 5 7 6 4 6 23 23
14 13 13 12 10 10 11 12 13 14 10 6 5 13 7 2 7 12 31 27 21 19 16 15 7 4 6 4 6 4 3 2 1 4 3 4 4 1 3 7 6 13 13 17 16
14 12 11 11 9 7 9 9 11 12 12 11 5 2 19 1 5 20 29 25 15 14 16 14 7 5 4 4 3 4 2 1 5 3 4 3 4 5 5 8 11 10 16 11 13
13 12 11 10 9 7 6 7 9 9 8 13 18 3 4 8 4 24 31 19 15 14 15 5 8 3 4 2 2 3 2 5 5 6 6 4 6 7 8 18 15 11 8 11 15
13 11 11 11 9 7 5 5 6 6 6 7 8 20 10 9 12 26 27 18 20 14 11 12 3 3 4 2 2 3 3 6 4 5 5 4 5 2 7 4 8 9 16 11 15
13 11 10 10 8 5 5 5 6 6 5 6 5 6 21 6 17 35 29 16 14 11 4 6 11 7 1 1 3 2 4 5 2 3 4 5 7 6 9 6 11 15 12 14 10
13 11 9 11 8 5 5 4 7 6 6 6 5 8 5 4 20 41 34 20 15 11 5 5 5 6 4 3 4 4 3 6 4 6 3 3 9 8 8 10 18 17 9 6 8
14 12 8 11 7 7 5 8 8 12 14 10 5 6 3 7 19 34 29 12 10 10 10 6 6 4 6 3 3 7 6 8 9 3 5 3 17 16 16 9 8 8 9 8 10
15 15 7 12 5 8 10 11 10 3 4 4 17 4 6 7 13 32 32 16 9 5 5 8 5 3 4 7 2 8 6 6 14 5 5 14 19 21 4 6 5 6 8 9 11
16 15 6 14 6 10 10 0 4 7 19 7 1 4 5 14 7 28 34 7 7 8 5 5 8 5 5 1 3 4 4 12 14 10 18 12 20 15 4 2 5 7 9 11 14
15 14 4 9 8 6 5 6 2 6 7 5 3 3 3 6 5 22 27 7 7 5 7 4 3 5 6 2 7 10 12 8 12 7 17 10 19 8 4 2 1 5 9 13 17
14 13 3 2 7 13 13 8 9 5 5 2 3 3 5 5 5 13 14 4 5 5 5 4 3 8 4 4 17 12 4 5 13 23 3 9 5 2 1 2 3 5 7 12 17
14 12 11 1 1 5 5 7 4 2 4 9 7 6 7 1 4 12 12 1 6 5 4 2 4 7 5 7 12 7 3 19 18 9 3 6 5 4 1 6 3 9 12 16 21
12 13 10 9 4 3 3 4 2 1 4 5 5 5 6 8 5 14 13 6 2 4 4 4 6 5 4 11 10 7 22 17 9 1 4 3 3 6 2 5 6 13 16 18 23
9 13 8 3 10 4 5 5 2 5 4 5 4 7 5 5 5 7 8 9 0 3 2 3 3 1 4 13 5 14 10 1 3 2 2 4 4 5 3 2 5 10 16 24 27
3 9 18 8 3 3 6 3 4 6 2 7 5 6 2 6 5 7 5 10 6 7 8 7 3 3 4 4 4 11 7 5 6 4 4 5 4 10 4 3 6 15 23 26 26
1 3 13 11 4 4 4 3 9 1 2 1 4 3 4 8 3 8 4 6 6 4 2 5 6 4 8 4 4 4 4 3 5 5 8 12 6 6 4 5 8 18 23 26 27
1 1 6 12 3 2 3 7 2 2 2 6 4 4 3 2 3 7 4 1 3 2 3 5 5 3 1 2 4 5 5 1 2 2 2 5 7 9 4 7 14 23 28 30 30
1 1 6 10 4 1 5 4 2 0 1 1 3 4 3 6 7 6 3 3 3 2 1 2 6 3 3 2 3 4 1 3 3 7 7 7 6 7 6 9 22 30 29 31 29
1 3 8 7 4 6 4 3 2 1 1 1 2 1 3 3 1 2 3 4 1 3 3 4 3 6 4 1 4 2 3 3 1 2 3 6 8 5 4 14 30 30 31 31 29
2 2 8 3 5 3 3 3 2 2 2 1 3 3 3 0 2 2 3 6 5 3 2 3 3 4 6 4 4 3 5 4 0 4 5 7 9 4 3 27 24 30 31 30 27
3 1 6 2 3 2 1 2 1 2 1 2 1 2 3 2 2 3 3 3 3 3 3 3 1 6 7 3 2 2 3 4 3 3 5 4 10 15 22 24 27 32 31 29 29
3 2 4 6 2 7 5 3 3 2 2 1 2 1 1 1 4 3 3 2 3 1 3 1 2 7 7 14 2 12 8 5 3 2 3 14 30 30 26 30 35 33 32 31 28
4 1 2 1 3 4 3 3 4 3 1 1 1 3 4 1 3 4 3 5 2 4 3 3 4 5 14 17 11 8 9 4 4 7 4 22 27 28 25 32 32 31 32 30 28
3 4 3 2 2 4 1 4 6 2 5 3 3 4 6 5 7 5 3 3 5 2 3 1 4 4 8 2 4 3 3 6 7 8 12 16 27 12 28 27 29 31 29 28 33
4 4 4 2 2 3 3 5 6 6 3 3 4 3 5 10 8 10 6 5 6 2 2 1 3 5 5 7 3 3 6 5 8 6 8 7 15 27 30 30 31 33 27 32 32
Wind_Direction
35 35 35 43 49 63 64 67 67 66 72 147 82 37 17 8 24 39 35 3 357 348 350 352 11 28 59 58 30 296 160 254 18 13 335 327 351 304 298 266 316 253 181 322 329
33 34 37 47 54 70 67 62 56 49 60 98 80 11 313 323 33 37 6 357 352 347 353 358 351 2 49 20 20 49 145 48 65 117 292 291 282 302 321 306 290 269 287 336 337
31 33 36 43 62 67 56 50 52 49 57 74 37 13 29 191 69 348 355 354 353 356 357 360 12 43 58 15 4 3 88 303 318 281 292 255 290 253 289 291 266 292 311 326 332
28 29 35 40 43 58 50 53 52 54 53 43 345 48 45 131 60 344 348 350 356 7 23 24 20 49 66 48 340 92 32 84 268 309 318 266 323 270 244 263 285 299 300 314 336
27 31 34 34 41 49 61 67 54 59 55 41 45 54 50 44 83 352 349 6 4 25 31 29 40 51 71 52 20 56 337 301 296 284 252 275 265 257 251 268 286 292 312 325 330
25 28 30 29 32 52 69 62 34 55 45 39 53 54 74 71 356 357 353 10 16 29 44 43 61 85 94 58 69 309 279 279 288 281 275 288 267 332 253 283 292 307 325 317 329
22 21 24 24 26 77 79 40 55 59 44 34 38 78 63 115 17 8 9 22 26 26 50 52 66 73 71 24 332 330 343 324 246 285 293 319 275 233 260 320 299 299 309 305 358
19 17 18 21 24 108 70 66 78 52 64 49 39 78 99 40 8 9 7 14 37 56 78 73 86 91 45 330 26 24 35 341 299 313 297 40 280 269 295 323 305 306 329 12 358
17 13 18 18 22 130 52 108 92 83 77 49 37 85 29 357 353 2 2 355 15 56 59 65 64 69 2 42 40 27 287 296 310 253 288 352 296 289 326 338 18 43 23 2 352
12 12 23 13 50 133 101 102 81 318 347 41 40 63 33 324 350 358 4 24 30 354 18 32 50 65 27 35 18 315 314 281 295 296 333 291 279 291 34 76 53 25 9 354 344
12 12 46 28 82 142 151 322 16 3 32 85 187 96 299 337 30 2 356 360 22 61 20 8 54 20 319 331 200 254 249 280 282 283 327 306 292 301 213 66 27 6 358 345 338
14 20 76 43 68 143 179 75 118 137 87 42 67 45 13 353 359 359 6 49 29 21 333 30 68 313 289 237 336 318 300 291 287 298 318 324 295 307 170 185 202 352 348 339 336
17 18 13 78 50 69 94 99 111 123 89 24 48 30 333 6 43 346 15 8 41 29 9 87 7 319 347 332 346 330 240 292 294 324 285 313 293 350 215 219 259 342 315 331 339
21 25 31 111 87 76 70 115 116 90 88 339 350 7 354 52 60 0 9 41 24 9 2 42 346 351 338 352 354 308 279 303 304 326 293 8 296 305 289 284 277 322 337 338 338
29 26 46 58 85 68 126 144 142 12 44 349 348 332 359 62 318 359 8 25 22 340 45 293 356 350 1 339 336 274 303 305 291 208 11 347 38 278 327 313 333 341 333 333 334
37 34 28 24 57 71 126 138 121 46 312 349 0 355 15 32 15 324 18 14 10 353 59 256 294 268 319 309 325 323 307 353 79 102 0 239 59 279 275 247 299 310 326 334 332
40 29 31 48 47 81 140 111 37 82 29 341 337 2 32 337 351 11 15 24 43 9 15 332 334 341 350 330 328 360 352 349 356 5 256 209 4 248 263 230 281 325 335 332 328
346 5 21 34 66 126 157 55 62 143 338 13 348 320 43 358 31 351 19 24 33 59 12 24 337 16 350 136 244 347 83 111 304 308 303 308 226 260 191 219 285 333 329 327 326
3 20 22 0 35 151 85 49 182 227 256 341 313 18 354 11 6 12 46 273 246 44 81 6 272 319 322 74 110 323 36 212 265 265 310 268 288 300 206 291 330 326 328 329 327
196 105 15 358 6 99 70 118 176 332 117 50 81 50 324 330 7 33 12 241 298 195 155 242 296 246 308 67 62 102 278 11 8 330 314 289 285 261 306 312 329 328 327 324 317
148 62 358 356 34 51 88 176 150 142 129 69 169 316 222 301 348 322 268 274 206 9 110 145 146 293 349 55 188 7 19 28 219 261 290 308 282 219 261 333 330 323 322 317 312
88 46 351 21 46 48 80 134 146 159 89 92 93 134 189 249 304 298 258 214 150 167 318 218 166 283 260 295 162 136 179 139 90 289 257 271 270 295 313 328 322 317 315 310 308
86 285 354 23 90 75 159 76 71 134 146 136 159 193 181 217 345 225 257 258 185 320 192 211 338 319 348 3 41 170 249 188 213 230 234 270 274 312 318 319 321 315 313 310 311
83 34 354 46 48 125 140 167 159 35 111 132 157 124 110 285 211 283 281 281 315 232 276 127 153 175 227 257 175 298 284 234 220 236 260 273 294 308 317 322 319 318 314 313 313
27 170 160 358 10 97 94 150 146 195 37 133 225 213 152 318 277 236 244 303 316 353 41 97 250 211 250 262 280 257 265 167 177 236 251 305 297 299 315 319 314 313 310 314 314
121 130 13 105 85 96 255 221 176 188 144 221 203 176 167 192 198 254 221 217 258 333 4 63 270 344 287 136 136 266 183 202 234 254 260 286 284 287 312 313 314 315 314 314 321
116 113 108 318 89 96 214 184 207 149 217 209 182 143 222 242 232 238 223 223 234 333 313 20 323 342 271 317 63 14 219 227 253 243 257 287 299 316 319 322 320 315 313 322 319